Chicago, IL

6:26 PM CDT on March 29, 2017 (GMT -0500)
Chicago-O'Hare International

Weather History for KORD - September, 2013

Change the Weather History Date:

Sunday, September 22, 2013

  Actual Average Record
Temperature  
Mean Temperature 58 °F 62 °F  
Max Temperature 67 °F 72 °F 92 °F (1956)
Min Temperature 49 °F 51 °F 32 °F (1974)
Degree Days  
Heating Degree Days 7 5  
Month to date heating degree days 40 54  
Since 1 July heating degree days 51 67  
Cooling Degree Days 0 2  
Month to date cooling degree days 136 82  
Year to date cooling degree days 901 822  
Growing Degree Days 7 (Base 50)    
Moisture  
Dew Point 46 °F    
Average Humidity 66    
Maximum Humidity 80    
Minimum Humidity 52    
Precipitation  
Precipitation 0.00 in 0.11 in 1.73 in (2006)
Month to date precipitation 2.19 2.40  
Year to date precipitation 34.56 27.53  
Snow  
Snow 0.00 in 0.00 in 0.00 in ()
Month to date snowfall 0.0 0.0  
Since 1 July snowfall 0.0 0.0  
Since 1 September snowfall 0.0 0.0  
Snow Depth 0.00 in    
Sea Level Pressure  
Sea Level Pressure 30.01 in    
Wind  
Wind Speed 8 mph (NNE)    
Max Wind Speed 14 mph    
Max Gust Speed 24 mph    
Visibility 10 miles    
Events      
T = Trace of Precipitation, MM = Missing Value Source: NWS Daily Summary

Daily Weather History Graph

Daily Weather History Graph

Search for Another Location

Airport or City:

Trip Planner

Search our weather history database for the weather conditions in past years. The results will help you decide how hot, cold, wet, or windy it might be!

Date:

Astronomy

Sep. 22, 2013 Rise Set
Actual Time 6:39 AM CDT 6:48 PM CDT
Civil Twilight 6:11 AM CDT 7:16 PM CDT
Nautical Twilight 5:38 AM CDT 7:48 PM CDT
Astronomical Twilight 5:05 AM CDT 8:22 PM CDT
Moon 8:34 PM CDT (9/22) 10:03 AM CDT (9/22)
Length of Visible Light 13h 04m
Length of Day
12h 09m
Waning Gibbous, 88% of the Moon is Illuminated
Sep 22
Waning Gibbous
Sep 26
Last Quarter
Oct 4
New
Oct 11
First Quarter
Oct 18
Full

Hourly Weather History & Observations

Time (CDT) Temp. Dew Point Humidity Pressure Visibility Wind Dir Wind Speed Gust Speed Precip Events Conditions
12:51 AM 53.1 °F 44.1 °F 71% 29.95 in 10.0 mi NNW 8.1 mph - N/A   Clear
1:51 AM 52.0 °F 45.0 °F 77% 29.95 in 10.0 mi NNW 6.9 mph - N/A   Clear
2:51 AM 50.0 °F 44.1 °F 80% 29.96 in 10.0 mi NW 3.5 mph - N/A   Partly Cloudy
3:51 AM 51.1 °F 44.1 °F 77% 29.97 in 10.0 mi North 6.9 mph - N/A   Partly Cloudy
4:51 AM 50.0 °F 44.1 °F 80% 29.98 in 10.0 mi North 4.6 mph - N/A   Partly Cloudy
5:51 AM 50.0 °F 44.1 °F 80% 29.99 in 10.0 mi NNW 5.8 mph - N/A   Partly Cloudy
6:51 AM 50.0 °F 45.0 °F 83% 30.00 in 10.0 mi North 4.6 mph - N/A   Partly Cloudy
7:51 AM 53.1 °F 46.9 °F 80% 30.01 in 10.0 mi North 8.1 mph - N/A   Partly Cloudy
8:51 AM 57.0 °F 48.0 °F 72% 30.04 in 10.0 mi North 8.1 mph 18.4 mph N/A   Partly Cloudy
9:51 AM 61.0 °F 50.0 °F 67% 30.04 in 10.0 mi NNE 8.1 mph - N/A   Partly Cloudy
10:51 AM 63.0 °F 48.0 °F 58% 30.04 in 10.0 mi NE 6.9 mph - N/A   Mostly Cloudy
11:51 AM 63.0 °F 46.9 °F 56% 30.04 in 10.0 mi NNE 9.2 mph - N/A   Mostly Cloudy
12:51 PM 64.9 °F 46.0 °F 50% 30.03 in 10.0 mi ENE 8.1 mph - N/A   Mostly Cloudy
1:51 PM 64.9 °F 46.0 °F 50% 30.02 in 10.0 mi ENE 9.2 mph 19.6 mph N/A   Mostly Cloudy
2:51 PM 64.0 °F 46.9 °F 54% 30.02 in 10.0 mi ENE 8.1 mph - N/A   Scattered Clouds
3:51 PM 64.0 °F 46.9 °F 54% 30.01 in 10.0 mi ENE 11.5 mph - N/A   Partly Cloudy
4:51 PM 63.0 °F 46.0 °F 54% 30.01 in 10.0 mi ENE 11.5 mph - N/A   Partly Cloudy
5:51 PM 61.0 °F 46.9 °F 60% 30.02 in 10.0 mi ENE 11.5 mph - N/A   Partly Cloudy
6:51 PM 59.0 °F 46.9 °F 64% 30.02 in 10.0 mi ENE 9.2 mph - N/A   Partly Cloudy
7:51 PM 57.9 °F 46.9 °F 67% 30.03 in 10.0 mi East 5.8 mph - N/A   Partly Cloudy
8:51 PM 57.0 °F 48.0 °F 72% 30.04 in 10.0 mi ENE 8.1 mph - N/A   Partly Cloudy
9:51 PM 57.0 °F 48.0 °F 72% 30.04 in 10.0 mi ENE 6.9 mph - N/A   Partly Cloudy
10:51 PM 55.9 °F 46.9 °F 72% 30.04 in 10.0 mi ENE 6.9 mph - N/A   Partly Cloudy
11:51 PM 55.0 °F 46.9 °F 74% 30.06 in 10.0 mi ENE 4.6 mph - N/A   Partly Cloudy